Find Starlink 37816

NORAD ID: 69478 Int'l Des: 2026-131 Owner: SPXS Country: US Constellation: starlink operational
LEOCIRCULARRETROGRADE

現在のビュー

3D地球を読み込み中...

About Starlink 37816

Starlink 37816 (NORAD 69478) is a starlink constellation satellite (v2 mini) launched Jun 11, 2026 by SPXS of US. It operates in LEO, CIRCULAR, RETROGRADE orbit with a mass of 575.00 kg.

次回通過

Passes for default location (London). Set your location on the main map for personalized predictions.

高度履歴

Loading altitude history...

軌道要素

1 69478U 26131A 26208.91668981 -.02374705 00000-0 -69777-1 0 9990
2 69478 97.2840 230.6353 0001525 53.2405 80.0770 15.38741664 5967
Epoch: Jul 27, 2026 • Age: 11 hours

現在のステータス

高度 469.5 km
遠地点 / 近地点 N/A
速度 7.64 km/s
衛星直下点 79.92°N, 19.04°E
打ち上げ日 Jun 11, 2026
運用期間 0.1 years
タイプ internet

技術仕様

分類 Payload
質量 575.00 kg
乾燥質量 530.00 kg
総質量 575.00 kg
長さ 0.30 m
直径 4.10 m
スパン 29.00 m
形状 Box + pan
製造者 SPXS
バスタイプ Starlink V2MO
フェーズステータス In Orbit
所有者/国 SPXS/US

Most Searched